Regional Weather Roundup
Issued by NWS

Home | Current Version | Previous Version | Graphics & Text | Print | Product List | Glossary Off
Versions: 1 2 3 4 5 6 7 8 9 10 11 12 13 14 15 16 17 18 19 20 21 22 23 24 25 26 27 28 29 30 31 32 33 34 35 36 37 38 39 40 41 42 43 44 45 46 47 48 49 50

000
ASUS43 KTOP 211259
RWRKS

WEATHER ROUNDUP FOR KANSAS
NATIONAL WEATHER SERVICE GOODLAND KS
700 AM CST FRI NOV 21 2014

NOTE:  "FAIR" INDICATES FEW OR NO CLOUDS BELOW 12,000 FEET WITH NO
SIGNIFICANT WEATHER AND/OR OBSTRUCTIONS TO VISIBILITY.

KSZ001>006-013>018-027>032-041>047-211400-
NORTHWEST KANSAS

CITY           SKY/WX    TMP DP  RH WIND       PRES   REMARKS
GOODLAND       PTCLDY    26  24  92 S9        29.99F
HAYS           PTCLDY    23  14  68 NE3       30.10R
HILL CITY      MOCLDY    22  18  85 CALM      30.09R
RUSSELL        PTCLDY    23  19  85 NE6       30.09S
$$

KSZ061>065-074>080-084>089-211400-
SOUTHWEST KANSAS

CITY           SKY/WX    TMP DP  RH WIND       PRES   REMARKS
DODGE CITY     CLEAR     26  21  81 CALM      30.07R
ELKHART          N/A     26  22  85 CALM        N/A
GARDEN CITY    PTCLDY    24  21  88 CALM      30.06R
GREAT BEND     PTCLDY    21  14  73 CALM      30.11R
LIBERAL        PTCLDY    25  18  74 NW5       30.07R
$$

KSZ066>073-081>083-090>101-211400-
SOUTHEAST KANSAS

CITY           SKY/WX    TMP DP  RH WIND       PRES   REMARKS
CHANUTE        CLOUDY    33  25  72 E7        30.16S
COFFEYVILLE    LGT RAIN  38  36  92 NE8       30.14F FOG
HUTCHINSON     CLEAR     26  19  74 NE3       30.10S
MEDICINE LODGE   N/A     35  27  72 CALM      30.08R
NEWTON         CLEAR     25  18  74 E8        30.11F
PARSONS        CLOUDY    35  34  96 VRB5      30.16R FOG
WICHITA INTL   CLOUDY    36  26  67 E7        30.10R
WICHITA JABRA  CLOUDY    32  24  72 E7        30.10S
WINFIELD       CLOUDY    38  31  76 E9        30.10S
$$

KSZ007>012-019>026-033>040-048>060-102>105-211400-
NORTHEAST KANSAS

CITY           SKY/WX    TMP DP  RH WIND       PRES   REMARKS
CONCORDIA      MOCLDY    20  17  88 E6        30.15S
EMPORIA        CLEAR     22  18  85 E6        30.16S
LAWRENCE       CLEAR     22  16  78 E7        30.22F
MANHATTAN      PTCLDY    24  18  77 E8        30.18F
OLATHE IND     CLEAR     26  17  68 E10       30.21F WCI  16
OLATHE EXE     CLEAR     26  17  68 E8        30.21S
SALINA         PTCLDY    24  17  74 NE3       30.15S
TOPEKA BILLARD CLEAR     25  17  72 E8        30.21F
TOPEKA FORBES  CLEAR     25  18  74 E6        30.19F
$$


USA.gov is the U.S. government's official web portal to all federal, state and local government web resources and services.